Torna al catalogo

STARLINK-30233

AttivoComunicazioniVLEO
NORAD 57302·PAYLOAD·🇺🇸 United States

Lanciato Jul 10, 2023 da Cape Canaveral Space Force Station

Loading…

Prossimi Passaggi (prossime 24 ore)

TLE

AggiornatoSource: CelesTrak SupGP

Epoca: Sep 14, 2026, 22:03 UTC

1 57302C 23096N   26257.91923611  .00549190  00000+0  66457-2 0  2575
2 57302  42.9998 229.4314 0001982 267.0132 168.3896 15.59500576    11

Traccia STARLINK-30233 in tempo reale con AllMySat

Download on the App Store